CZ-6A DEB, 60633

Orbit data source: Space-Track

CZ-6A DEB, 60633 is space debris in LEO originally from a launch on Tue, 06 Aug 2024 UTC launched from the Taiyaun Space Center, China (TSC). Debris objects in space refer to the collection of defunct objects orbiting the Earth. Examples of debris include non-operational satellites, rocket bodies, and fragments generated from explosions, collisions, or faulty payload assembly.

Loading next visibility...
Identifier
60633, 2024-140AJ
Orbit
LEO
Country
Flag of CNCN / PRC
Related business
Manufacturer
SAST
Mission
Spacecraft
Bus & Motor
Unknown
Mass
Unknown
Launch date (UTC)
2024-08-06 (2 years ago)
Launch vehicle
Unknown
Launch site
Taiyaun Space Center, China (TSC)
Object type
Payload
Rocket body
Debris
Shape & HBR
Unknown shape, 2.0 m
Radar Cross Section
Large (>1 m²)

Expand to show TLE details & history
Last TLE update: 13 hours ago

TLE from 13 hours ago
0 CZ-6A DEB
1 60633U 24140AJ  26171.30925206  .00000319  00000-0  14923-3 0  9998
2 60633  89.0205 276.2401 0057650 174.3193 185.8662 14.16930227 96441
Epoch: 2026-06-20T07:25Z
TLE epoch observation values (Epoch: 2026-06-20T07:25:19.377Z)
Latitude
-0.00009°
Longitude
-103.61636°
Altitude
880.184 km
Speed
7.391 km/s
True Right ascension
18h 24m 57s
True Declination
0° 00' 00"
Sunlit
Object was in full shadow at epoch
Visualization orbit readout
Latitude
Unknown
Longitude
Unknown
Altitude
Unknown
Speed
Unknown
Apparent Right ascension
Unknown
Apparent Declination
Unknown
Sunlit
N/A
Visualization observer readout
Local Sidereal Time
07:20:42
Azimuth
Unknown
Elevation
Unknown
Doppler factor
Unknown
Orbital elements
Apogee altitude
874.279 km
Perigee altitude
791.138 km
Semi-major axis
7,210.846 km
Eccentricity
0.00577
Inclination
89.0205°
RAAN
276.2401°
Arg. of periapsis
174.3193°
True anomaly
185.79916°
Mean anomaly
185.8662°
Eccentric anomaly
185.83263°
Mean motion
3.54457 °/min
Orbital period
101.56 mins
BSTAR
0.00014923
Loading maneuver chart data...
Computing Atmospheric mass density...
Loading historical data...
Loading historical data...
Loading historical data...
Loading historical data...
Loading historical data...
Loading historical data...
Loading historical data...

Documentation

Showing up to 5 results
|